Tracking 18794 objects as of 22-September-2017
HD Live streaming from Space Station
objects crossing your sky now

NTS 2

Track NTS 2 now!
NTS 2 is classified as:


NORAD ID: 10091
Int'l Code: 1977-053A
Perigee: 20,044.7 km
Apogee: 20,353.9 km
Inclination: 64.5 °
Period: 718.4 minutes
Semi major axis: 26570 km
RCS: 3.8343 m2 (large)
Launch date: June 23, 1977
Source: United States (US)
Launch site: AIR FORCE WESTERN TEST RANGE (AFWTR)
aabbcc
Your satellite tracking list
Your tracking list is empty





NASA's NSSDC Master Catalog

Two Line Element Set (TLE):
1 10091U 77053A   17264.33481593 -.00000079 +00000-0 +00000-0 0  9996
2 10091 064.5055 020.4801 0058185 234.1477 100.7135 02.00450741294711
Source of the keplerian elements: AFSPC